Regional Weather Roundup
Issued by NWS

Home | Current Version | Previous Version | Text Only | Print | Product List | Glossary On
Versions: 1 2 3 4 5 6 7 8 9 10 11 12 13 14 15 16 17 18 19 20 21 22 23 24 25 26 27 28 29 30 31 32 33 34 35 36 37 38 39 40 41 42 43 44 45 46 47 48 49 50
312
ASUS44 KLIX 302310
RWRLA
LOUISIANA WEATHER ROUNDUP
NATIONAL WEATHER SERVICE NEW ORLEANS LA
600 PM CDT THU OCT 30 2014

NOTE: "FAIR" INDICATES FEW OR NO CLOUDS BELOW 12,000 FEET WITH NO
      SIGNIFICANT WEATHER AND/OR OBSTRUCTIONS TO VISIBILITY.
      SKY/WX - SKY CONDITION AND SIGNIFICANT WEATHER.
      TMP - AIR TEMPERATURE.    DP   - DEWPOINT TEMPERATURE.
      RH  - RELATIVE HUMIDITY.  PRES - PRESSURE.
      HX  - HEAT INDEX.         WCI  - WIND CHILL INDEX.

*  THESE STATIONS ARE NOT NWS OR FAA STATIONS AND ARE NOT UNDER
   NWS QUALITY CONTROL.

LAZ040-048-061>063-065-066-069-310000-
SOUTHEAST LOUISIANA

CITY           SKY/WX    TMP DP  RH WIND       PRES   REMARKS
N.O. AUDUBON     N/A     72 N/A N/A MISG        N/A
N.O. INTL ARPT PTCLDY    67  43  41 NW7       30.03S
N.O. LAKEFRONT CLEAR     71  43  36 NW5       30.03S
N.O. DOWNTOWN* FAIR      72  39  30 N5        30.03S
SLIDELL        CLEAR     68  44  42 CALM      30.02S
BATON ROUGE    CLEAR     70  44  39 CALM      30.05R
BOOTHVILLE     CLEAR     69  51  52 CALM      30.03R
BELLE CHASSE   CLEAR     67  45  45 CALM      30.02S
BOGALUSA*      FAIR      70  38  31 N3        30.05R
NEW ROADS*     FAIR      69  46  44 NW5       30.05S
GONZALES*      FAIR      67  50  54 N3        30.04R
HAMMOND*       CLEAR     70  41  35 CALM      30.05S
HOUMA*         CLEAR     70  45  40 N5        30.03R
PORT FOURCHON* CLEAR     72  46  40 NE7       30.06R

$$

LAZ041-044-053-054-310000-
SOUTHWEST LOUISIANA

CITY           SKY/WX    TMP DP  RH WIND       PRES   REMARKS
LAKE CHARLES   CLEAR     72  46  39 NE6       30.05R
LAFAYETTE      CLEAR     71  42  35 N6        30.05R
PATTERSON      CLEAR     72  48  43 NW5       30.06R
SALT POINT       N/A     71  51  49 CALM      30.03R
NEW IBERIA     CLEAR     70  47  43 N6        30.05R
CHENAULT AIRPK CLEAR     72  46  40 N3        30.06R

$$

LAZ027-028-310000-
CENTRAL LOUISIANA

CITY           SKY/WX    TMP DP  RH WIND       PRES   REMARKS
FORT POLK      CLEAR     68  49  51 NE3       30.06S
ALEXANDRIA INT CLEAR     70  45  40 CALM      30.05S
ALEXANDRIA     CLEAR     65  52  62 CALM      30.06S

$$

LAZ001-002-310000-
NORTHWEST LOUISIANA

CITY           SKY/WX    TMP DP  RH WIND       PRES   REMARKS
SHREVEPORT     CLEAR     71  43  36 NW3       30.06S
BARKSDALE AFB  CLEAR     71  39  31 W5        30.06S
DTN SHREVEPORT CLEAR     71  40  32 CALM      30.06S

$$

LAZ014-016-310000-
NORTHEAST LOUISIANA

CITY           SKY/WX    TMP DP  RH WIND       PRES   REMARKS
MONROE         CLEAR     65  53  65 CALM      30.07S
TALLULAH       CLEAR     63  52  67 CALM      30.06S

$$




USA.gov is the U.S. government's official web portal to all federal, state and local government web resources and services.